Location: Aschersleben
(51.7500°N, 11.4670°E)
Time: 19:54:27
(UTC+01:00)

ISS - Pass Details

Date: 30 October 2019
Orbit: 412 x 421 km, 51.6° (Epoch: 16 November)

Event Time Altitude Azimuth Distance (km) Brightness Sun altitude
Exits shadow 04:11:29 18° 119° (ESE) 1,123 -1.1 -27.0°
Drops below altitude 10° 04:13:00 10° 95° (E) 1,508 0.0 -26.8°
Sets 04:15:27 0° 78° (ENE) 2,375 1.4 -26.4°
